Location: Alma
(38.7220°N, 88.9090°W)
Time: 01:36:06
(UTC-06:00)

Vanguard 2 Rocket - Pass Details

Date: 15 November 2019
Orbit: 554 x 3326 km, 32.9° (Epoch: 09 December)

Event Time Altitude Azimuth Distance (km) Brightness Sun altitude
Rises 09:05:22 0° 268° (W) 5,096 10.4 22.3°
Reaches altitude 10° 09:09:38 10° 253° (WSW) 4,550 10.3 22.8°
Maximum altitude 09:18:17 20° 212° (SSW) 4,510 10.9 23.8°
Drops below altitude 10° 09:29:29 10° 173° (S) 5,998 12.3 25.1°
Sets 09:36:39 0° 160° (SSE) 7,247 12.7 25.9°
